User: anonymous   Login
Location: Unspecified
(0.0000°N, 0.0000°E)
Time: 05:23:18
(UTC+00:00)
Language:

Radcal - Orbit

View from above orbital plane
View from above orbital plane
View from above satellite
View from above satellite

Ground track
Ground track

The orbit data is extracted from the following two-line orbital elements,

1 22698U 93041A   18146.59664362 +.00000032 +00000-0 +74999-5 0  9993
2 22698 089.5642 215.8227 0091362 090.4644 270.7018 14.23374189293403
Epoch (UTC): 26 May 2018 14:19:10
Eccentricity: 0.0091362
inclination: 89.5642°
perigee height: 748 km
apogee height: 879 km
right ascension of ascending node: 215.8227°
argument of perigee: 90.4644°
revolutions per day: 14.23374189
mean anomaly at epoch: 270.7018°
orbit number at epoch: 29340

The dashed part of the orbit path shows where the satellite is in the earth's shadow,  

DLR